CDT,Max TemperatureF,Mean TemperatureF,Min TemperatureF,Max Dew PointF,MeanDew PointF,Min DewpointF,Max Humidity, Mean Humidity, Min Humidity, Max Sea Level PressureIn, Mean Sea Level PressureIn, Min Sea Level PressureIn, Max VisibilityMiles, Mean VisibilityMiles, Min VisibilityMiles, Max Wind SpeedMPH, Mean Wind SpeedMPH, Max Gust SpeedMPH,PrecipitationIn, CloudCover, Events, WindDirDegrees
2013-3-1,42,35,28,34,31,27,100,85,70,30.17,30.13,30.09,10,8,5,12,3,17,0.00,6,,302
2013-3-2,37,34,32,32,31,28,100,87,81,30.24,30.18,30.12,10,9,2,15,7,29,0.01,7,Snow,326
2013-3-3,51,38,26,43,32,23,100,84,70,30.26,30.19,30.13,10,10,8,13,6,18,0.00,2,,337
2013-3-4,69,48,28,70,47,25,100,85,56,30.14,30.00,29.84,10,10,8,21,7,31,0.00,1,,167
2013-3-5,62,48,35,63,50,36,100,98,87,30.16,29.99,29.79,10,9,1,23,12,31,0.12,5,Rain,255
2013-3-6,48,39,30,45,36,30,100,92,81,30.34,30.28,30.17,10,9,7,16,9,26,0.00,3,,331
2013-3-7,57,42,28,52,36,27,100,86,67,30.40,30.33,30.29,10,8,5,9,2,22,0.00,0,,1
2013-3-8,71,50,30,54,37,25,93,68,52,30.42,30.30,30.22,10,7,3,7,2,,0.00,0,,360
2013-3-9,78,58,39,73,54,30,100,82,54,30.25,30.13,30.03,10,8,7,16,5,23,0.00,0,,153
2013-3-10,73,64,55,72,60,45,100,88,63,30.04,29.94,29.81,10,8,2,25,10,40,1.02,3,Rain,166
2013-3-11,57,47,37,54,41,36,100,78,58,30.05,29.93,29.85,10,7,2,16,5,21,1.07,5,Rain,304
2013-3-12,62,46,30,61,38,23,100,80,52,30.22,30.14,30.05,10,8,0,12,2,16,0.00,0,Fog,337
2013-3-13,59,46,33,54,40,28,100,79,54,30.43,30.33,30.22,10,10,1,18,6,25,0.00,0,,335
2013-3-14,62,45,28,54,38,23,100,82,54,30.49,30.37,30.24,10,9,6,8,1,,0.00,0,,226
2013-3-15,80,58,37,79,51,30,100,74,53,30.25,30.11,29.98,10,10,8,16,5,22,0.00,0,,208
2013-3-16,80,66,51,75,55,36,100,73,47,30.02,29.96,29.89,10,10,8,18,7,24,0.00,0,,202
2013-3-17,75,64,53,75,65,54,100,99,94,29.99,29.91,29.82,10,9,8,14,7,22,0.00,1,,186
2013-3-18,80,65,48,75,62,48,100,96,78,30.01,29.84,29.75,10,8,3,20,11,24,0.00,5,,215
2013-3-19,68,52,35,61,49,36,100,88,72,30.19,30.11,30.02,10,8,0,14,6,20,0.00,0,Fog,16
2013-3-20,64,50,37,54,44,36,93,79,67,30.23,30.14,30.07,10,10,9,18,6,25,0.00,0,,343
2013-3-21,53,42,30,43,37,30,100,81,62,30.14,30.05,29.95,10,10,7,9,4,,0.00,0,,12
2013-3-22,53,46,39,54,45,39,100,98,87,30.03,29.97,29.91,10,8,2,13,5,20,0.02,7,Rain,128
2013-3-23,60,53,46,59,53,46,100,98,88,29.92,29.83,29.62,10,6,1,23,4,33,1.52,8,Rain,86
2013-3-24,59,50,41,55,41,28,100,67,54,29.95,29.71,29.55,10,8,0,23,8,34,0.22,7,Rain,272
2013-3-25,48,42,35,34,28,23,65,60,54,30.25,30.10,29.95,10,10,8,20,12,28,0.00,6,,306
2013-3-26,48,39,30,32,25,19,70,60,54,30.40,30.33,30.23,10,10,8,14,7,18,0.00,3,,322
2013-3-27,60,43,26,45,32,18,93,68,52,30.46,30.38,30.32,10,9,2,8,1,,0.00,0,,240
2013-3-28,69,50,32,54,37,19,75,61,52,30.39,30.32,30.26,10,8,0,9,1,,0.00,0,,260
2013-3-29,75,56,37,57,40,25,67,57,52,30.30,30.24,30.18,10,9,7,13,2,20,0.00,2,,231
2013-3-30,62,54,46,48,40,32,72,58,54,30.20,30.10,30.00,10,5,1,8,1,,0.12,5,Rain,170
2013-3-31,69,60,51,52,44,36,63,56,51,30.01,29.94,29.88,10,6,0,14,4,18,0.01,5,Rain,214